RH
81 78 71 62 55 40 29 27 26 25 23 22 26 18 16 14 14 17 18 23 31 33 43 43 51 59 60 72 18 10 9 7 7 9 25 28 29 39 63 69 67 72 84
87 78 72 69 60 48 39 31 27 26 24 23 22 20 18 17 16 16 16 15 14 13 13 18 24 32 14 9 10 9 8 8 15 17 16 23 38 50 52 46 44 46 51
74 81 76 72 66 59 50 41 34 30 28 26 24 22 21 19 18 18 16 14 14 13 10 9 7 8 8 10 9 8 8 13 16 15 18 18 16 14 12 12 17 35 37
67 69 78 74 67 63 57 50 43 38 34 31 28 26 24 22 19 17 19 18 16 13 11 10 8 9 9 9 8 9 15 18 14 9 9 12 13 8 6 6 7 17 40
82 79 73 77 78 70 62 57 47 41 40 39 38 34 33 31 23 17 17 14 13 9 9 10 10 9 9 8 9 15 18 11 9 10 13 12 8 7 7 7 8 9 11
79 82 79 78 74 74 73 68 60 52 49 49 51 55 56 50 40 35 24 9 9 10 12 11 12 10 9 9 15 18 10 8 9 11 8 7 7 8 8 9 10 8 8
67 74 78 80 77 74 70 69 64 58 60 64 65 65 57 51 46 33 14 14 16 24 21 16 11 9 12 17 15 10 9 10 10 7 6 7 8 10 10 12 11 8 8
64 70 73 70 70 70 71 70 64 57 49 38 36 41 45 36 23 12 12 25 27 19 13 10 10 15 18 11 9 11 12 10 7 7 8 10 13 13 13 15 11 10 10
86 84 80 83 75 67 67 68 66 60 51 42 24 16 14 12 12 20 32 27 20 15 12 10 14 17 11 10 11 13 9 7 7 9 14 17 18 16 19 18 14 12 10
87 92 91 87 77 60 64 60 44 35 29 19 16 15 17 22 27 38 38 25 17 14 11 15 16 12 10 11 13 8 7 8 11 14 14 20 21 20 21 23 16 14 13
100 100 95 74 60 53 51 53 40 22 19 20 31 39 37 40 43 36 20 14 12 12 17 14 11 11 12 13 8 8 8 8 9 13 19 23 19 19 29 27 20 21 19
95 94 97 100 49 43 35 29 24 23 26 33 37 40 39 26 19 15 13 12 16 16 12 11 13 14 14 8 7 8 9 13 14 18 20 22 19 21 30 28 24 27 26
100 93 92 91 52 39 30 28 31 32 33 34 28 28 34 37 19 13 17 17 13 12 13 16 16 17 15 9 10 11 13 17 18 20 23 21 18 21 26 29 28 32 34
94 85 92 92 64 49 40 39 39 42 43 40 33 28 23 16 18 18 14 12 17 19 19 20 20 18 19 15 13 15 18 22 22 23 23 19 20 25 26 28 38 39 38
97 100 98 98 92 80 64 59 51 35 28 24 22 21 20 17 14 12 17 23 24 23 23 23 22 20 21 21 20 24 24 25 25 25 18 17 20 24 22 25 28 24 18
95 92 88 97 100 96 89 64 38 28 25 22 19 15 14 15 20 22 24 27 29 29 27 22 22 26 29 29 30 32 31 28 28 23 15 18 18 19 19 19 19 16 16
98 97 86 64 54 50 65 48 28 22 19 17 16 18 20 24 26 27 31 31 26 22 26 30 36 38 39 41 42 37 32 31 28 18 19 19 19 18 16 16 16 16 16
56 55 85 95 73 52 61 52 30 22 25 24 26 29 26 21 18 17 20 24 30 38 38 38 40 46 51 51 47 38 36 32 24 21 21 20 20 19 19 19 19 20 20
71 71 81 51 39 40 42 38 37 43 42 34 29 26 28 26 26 29 33 39 38 39 44 51 55 62 65 58 44 40 36 32 26 23 23 23 24 24 24 24 24 25 26
42 45 44 40 38 48 63 69 62 48 38 30 24 22 21 23 22 21 22 26 32 37 51 60 64 68 60 47 44 40 36 32 30 28 28 29 31 32 33 32 33 33 33
60 53 50 51 60 72 81 72 57 47 41 35 30 28 28 29 31 32 33 34 37 44 58 68 71 64 66 59 47 44 46 43 39 37 36 37 39 41 42 43 44 43 42
49 42 51 77 96 99 88 69 60 53 46 44 42 35 37 38 41 41 36 40 40 47 60 68 73 74 71 65 60 57 57 56 55 53 52 51 51 51 50 50 49 50 51
51 60 84 100 100 99 83 74 68 60 58 52 55 46 43 44 50 45 45 40 45 54 57 56 70 82 86 88 87 84 85 84 80 77 71 68 66 65 64 63 61 60 59
79 100 100 100 100 100 92 78 70 67 62 57 57 51 41 43 45 48 49 44 45 58 64 63 74 83 84 88 94 94 96 94 89 88 87 80 74 72 72 73 72 66 63
100 100 100 100 100 100 96 85 59 48 55 59 55 52 47 44 44 44 44 45 52 62 69 71 74 80 89 95 88 92 93 88 85 87 91 92 93 91 86 83 81 73 70
56 78 96 100 98 99 100 84 59 55 48 52 57 55 54 45 43 47 48 51 57 64 70 79 87 92 95 96 98 97 98 93 93 93 97 100 100 100 98 92 83 80 76
Wind_Speed
51 52 50 49 47 44 42 42 42 42 42 41 39 37 35 35 34 33 33 33 35 35 35 36 37 37 36 37 40 42 42 42 43 44 43 44 44 44 43 46 48 48 50
49 51 52 51 47 46 45 43 42 41 42 43 42 39 38 37 36 36 36 36 37 37 37 38 38 39 39 42 43 44 43 44 44 45 48 47 44 43 44 47 50 51 52
46 48 52 52 49 47 46 45 44 43 42 41 39 39 39 38 38 38 39 39 38 39 40 40 40 42 42 42 43 44 44 45 46 46 47 46 46 45 46 49 48 50 51
44 45 48 50 51 49 47 46 46 45 43 43 42 40 40 39 39 39 41 42 44 44 42 42 43 44 45 45 44 45 45 46 44 44 46 47 48 50 46 46 50 53 55
40 43 46 47 48 47 47 47 47 46 44 42 41 41 41 39 39 40 41 43 45 44 43 43 45 47 48 47 46 46 48 44 44 44 45 48 48 46 49 48 50 55 58
39 40 42 44 44 45 49 51 50 49 50 49 50 52 51 48 45 43 44 42 41 41 43 44 46 49 49 47 47 48 45 44 45 47 48 47 45 48 50 52 52 55 55
40 40 41 43 45 47 47 48 47 47 48 47 46 47 49 49 46 45 43 42 41 44 45 47 47 47 46 46 46 44 43 44 46 48 44 42 44 49 51 51 53 53 50
44 45 43 40 39 39 42 45 44 45 45 44 45 46 47 48 47 44 41 42 45 47 46 45 45 43 43 42 41 41 42 44 43 40 39 42 45 48 49 51 52 51 51
45 46 45 43 40 38 39 41 44 46 46 46 46 45 44 43 41 41 43 46 46 46 45 45 43 43 41 40 40 41 42 40 39 35 38 42 45 45 48 50 50 52 53
43 47 46 45 44 42 41 41 41 43 44 44 43 41 40 40 42 45 48 49 47 46 45 43 42 41 40 39 40 41 38 37 36 38 43 44 44 46 47 48 47 47 50
38 44 49 46 45 45 44 43 44 43 43 42 41 42 45 48 50 50 49 47 46 44 42 41 41 40 39 39 39 36 38 38 40 42 43 42 44 46 46 45 44 44 47
40 40 42 49 43 45 44 44 44 44 44 45 48 49 48 47 47 47 45 43 42 41 40 39 39 39 38 38 36 38 36 37 38 42 42 42 45 45 43 42 41 43 42
40 39 40 42 42 41 42 43 43 42 42 44 44 46 47 49 46 42 40 39 38 37 38 38 37 38 38 36 36 37 36 37 39 41 40 43 43 41 40 39 42 42 42
36 39 37 42 38 39 39 40 41 45 48 47 46 45 44 41 39 38 36 35 35 35 35 36 37 37 39 38 39 38 38 39 40 40 42 42 39 38 37 36 36 39 39
25 36 38 39 42 39 37 38 39 39 39 38 37 36 36 35 35 34 33 33 34 33 35 37 38 39 39 38 35 36 38 39 37 39 41 39 35 34 32 32 33 32 29
24 24 26 27 33 40 34 32 32 31 31 31 31 31 31 31 31 32 33 34 35 36 37 37 36 35 34 34 35 36 37 36 37 39 37 33 30 28 28 28 28 28 27
24 25 25 26 26 26 28 29 28 28 28 28 28 29 30 30 32 33 33 35 36 35 32 31 31 31 32 32 33 34 34 35 36 36 32 29 28 26 26 27 27 28 27
18 19 21 24 24 25 26 27 28 28 27 27 27 27 27 28 27 28 27 27 27 27 28 29 27 27 28 30 33 34 34 34 34 31 29 28 27 26 26 27 28 29 29
22 22 22 23 24 26 27 27 27 26 24 25 25 24 23 22 23 23 24 24 26 27 28 28 29 29 31 33 32 31 32 34 31 28 27 26 27 27 29 29 30 31 31
22 22 22 23 23 23 22 23 23 22 21 22 22 21 19 19 20 20 21 20 21 23 24 26 27 29 29 29 29 30 31 30 28 27 26 27 27 28 29 30 31 32 33
21 21 22 22 23 23 21 21 21 21 20 21 20 19 19 18 18 19 19 20 21 21 23 25 27 28 28 28 28 27 26 26 26 26 26 27 28 30 30 31 32 33 35
24 23 21 22 23 24 23 22 21 21 20 21 21 21 20 18 19 20 20 21 22 22 24 25 27 27 27 27 29 30 30 29 29 28 29 30 31 32 33 33 35 36 37
20 20 21 22 23 21 21 21 21 22 21 21 22 23 21 19 19 20 22 22 23 24 25 26 27 28 29 30 32 32 32 32 32 32 32 33 33 34 35 36 37 38 38
16 18 21 21 22 23 23 23 23 24 25 25 23 23 20 19 20 21 23 23 24 26 26 27 28 31 33 35 34 34 35 35 36 36 36 35 36 37 37 38 39 39 40
28 26 25 24 24 23 24 23 24 26 26 27 24 22 21 21 21 21 23 24 25 26 28 29 30 33 36 39 38 36 35 37 38 38 38 38 38 39 39 40 41 41 43
23 25 26 26 23 24 25 26 23 26 26 27 25 22 22 22 23 23 25 25 27 28 30 32 32 33 34 35 35 35 36 37 37 37 38 39 40 40 41 42 43 44 46
Wind_Direction
224 227 231 235 236 235 235 238 241 243 246 248 250 254 258 262 264 267 271 274 277 279 280 281 280 282 285 284 289 290 292 295 294 293 292 291 293 294 294 291 293 294 291
224 228 232 235 236 238 239 240 242 245 248 251 254 259 261 263 267 270 273 275 278 281 281 279 279 279 282 285 288 292 293 293 293 294 294 296 294 294 294 295 294 295 293
226 227 230 234 237 240 243 245 246 247 250 254 259 262 265 268 270 272 275 276 277 279 279 279 280 281 283 285 288 290 291 291 292 294 293 291 291 292 293 296 296 295 294
235 233 234 233 235 240 243 245 247 248 250 252 252 254 259 263 268 272 276 280 283 282 280 281 282 284 285 287 288 288 289 290 292 290 291 295 296 297 297 297 299 298 295
235 234 235 236 236 238 242 245 249 250 251 251 254 257 258 260 264 267 269 270 271 273 276 279 281 282 285 287 289 290 292 292 290 291 294 295 296 297 298 299 300 299 298
234 234 236 239 239 241 242 244 247 251 254 256 258 261 264 265 264 267 270 270 269 270 273 278 282 285 286 287 287 288 288 289 290 295 297 296 296 298 299 301 302 303 297
235 237 236 238 240 242 244 245 246 249 255 260 262 263 261 263 264 266 268 270 271 276 278 279 280 281 282 284 285 287 287 290 294 295 296 296 298 300 301 302 303 305 301
234 238 242 243 243 245 247 246 247 247 248 252 256 258 260 263 267 268 268 274 275 276 277 278 279 279 281 282 284 284 287 291 295 294 297 297 299 300 301 305 308 306 304
238 238 241 245 247 246 245 245 245 247 248 252 257 258 260 262 262 266 273 273 276 277 278 279 280 282 283 284 283 287 291 292 293 292 300 302 303 301 304 307 308 309 306
234 235 237 242 246 246 244 244 246 248 250 252 254 256 259 263 266 273 276 275 277 279 279 279 281 283 284 283 285 289 291 292 295 294 300 303 303 303 303 308 311 313 313
228 232 231 236 242 244 245 246 247 248 248 250 253 259 264 269 270 271 272 275 275 276 278 279 281 282 282 282 284 285 290 289 293 297 300 302 302 303 302 305 310 314 315
232 231 235 234 240 242 243 245 246 246 247 251 260 263 264 266 268 271 272 272 273 274 276 278 277 278 279 279 280 286 288 291 295 298 300 301 303 302 301 305 306 316 319
226 227 231 230 237 240 242 244 245 248 251 255 258 262 265 269 271 268 268 270 271 274 275 276 277 277 276 277 283 286 290 292 296 299 299 301 302 301 301 303 303 309 316
239 230 232 229 238 242 245 248 252 257 260 261 262 264 264 264 264 265 266 268 271 273 275 277 278 280 278 279 282 286 291 292 295 298 300 303 301 298 300 303 307 310 313
237 234 239 238 238 243 248 254 256 256 258 259 258 258 259 260 263 265 266 268 270 274 276 278 279 281 279 280 282 285 289 290 293 298 301 302 300 299 302 306 308 311 318
236 240 241 244 242 241 243 249 253 253 253 254 256 257 259 261 263 265 267 268 271 275 277 280 280 279 278 278 281 285 288 290 294 298 301 301 300 302 305 305 306 312 316
233 232 235 237 238 238 239 245 251 252 254 256 258 260 262 265 265 266 269 272 274 275 276 280 280 279 280 283 284 285 287 292 297 298 300 300 300 300 302 305 307 310 312
234 238 244 237 240 243 247 248 248 250 254 258 260 263 265 266 267 268 268 269 272 274 277 279 280 283 284 283 286 286 291 295 297 297 298 298 298 301 304 305 307 310 310
238 242 240 249 246 245 249 250 251 254 257 258 259 258 260 264 265 267 269 272 276 277 280 283 286 287 284 285 286 289 293 294 294 295 297 300 302 301 301 303 303 305 307
237 241 245 247 249 249 249 251 256 255 255 256 256 253 257 264 268 271 272 274 279 282 284 286 287 287 288 289 290 292 294 295 295 295 296 299 301 301 303 304 304 304 304
244 245 249 251 253 254 254 254 254 254 253 253 250 253 257 261 268 272 277 282 280 285 287 287 287 286 286 289 292 295 298 300 298 298 300 301 302 304 304 305 305 304 304
245 247 248 248 249 248 249 251 249 248 251 254 255 254 257 262 269 278 280 283 285 284 283 286 287 285 287 291 293 294 296 298 300 302 302 302 302 304 305 306 306 306 305
245 246 248 249 252 251 251 252 251 250 249 254 260 258 258 265 272 277 285 287 285 283 281 282 285 289 289 292 294 293 296 297 298 300 301 303 304 306 306 305 305 305 304
254 256 253 253 258 252 250 253 253 252 253 254 254 256 258 264 271 276 283 287 285 282 281 281 282 288 293 295 296 292 293 295 297 298 300 302 303 304 305 304 304 304 304
245 251 256 257 258 259 257 256 258 257 254 254 249 252 258 263 269 277 282 285 283 284 283 283 283 286 290 293 293 293 295 297 300 300 298 299 300 302 304 305 304 304 304
251 253 251 256 261 256 258 257 259 260 255 252 248 251 256 263 268 275 279 284 285 285 285 285 286 288 292 295 295 296 297 300 303 303 301 301 303 303 303 303 305 306 306